[[{"header":{"parameterUnit":"m.s-1","parameterCategory":1,"la1":30.2991,"la2":30.254,"lo1":-89.0895,"lo2":-89.0444,"dy":0.0017,"dx":0.0017,"nx":28,"ny":28,"refTime":"2024-05-30T21:00:00:Z","depth":0,"parameterNumber":2,"parameterNumberName":"U-component_of_WINDS"},"data":[0,0,0,0,0,0,0,0,0,0,0,0,0,0,0,0,0,0,0,0,0,0,0,0,0,0,0,0,0,0,0,0,0,0,0,0,0,0,0,0,0,0,0,0,0,0,0,0,0,0,0,0,0,0,0,0,0,0,-5.0598,-5.0597,0,-5.0525,-5.0525,-5.0524,-5.0318,-5.0314,-5.0309,-5.0305,-5.0236,-5.0238,-5.0241,0,0,0,0,0,0,0,0,0,0,0,0,0,-5.0565,-5.0567,-5.0598,-5.0597,-5.0596,-5.0525,-5.0524,-5.0523,-5.0319,-5.0313,-5.0308,-5.0303,-5.0235,-5.0238,-5.0241,0,0,0,0,0,0,0,0,0,0,0,0,0,-5.0545,-5.0567,-5.0598,-5.0485,-5.0475,-5.0526,-5.0524,-5.0523,-5.032,-5.0313,-5.0307,-5.03,-5.0235,-5.0238,-5.0241,-5.0398,0,0,-5.0252,-5.0254,0,0,0,0,0,0,0,0,-5.0546,-5.0546,-5.0503,-5.0493,-5.0481,-5.0424,-5.0487,-5.0481,-5.0322,-5.0379,-5.0305,-5.0297,-5.0304,-5.0302,-5.0303,-5.0394,-5.0391,-5.0252,-5.0255,-5.0256,-5.0257,0,0,0,0,0,0,0,-5.0548,-5.0548,-5.0569,-5.0503,-5.0489,-5.044,-5.043,-5.0485,-5.0381,-5.0373,-5.0358,-5.0352,-5.0297,-5.03,-5.03,-5.039,-5.0252,-5.0255,-5.0258,-5.0259,-5.0608,-5.0615,0,0,0,0,0,0,-5.0565,-5.0551,-5.0572,-5.0567,-5.0498,-5.0446,-5.0435,-5.0449,-5.0379,-5.0362,-5.0358,-5.0343,-5.0297,-5.0296,-5.0297,-5.0476,-5.0256,-5.0259,-5.0261,-5.0601,-5.0609,-5.0617,0,0,0,0,0,0,-5.0565,-5.0569,-5.0574,-5.0555,-5.0552,-5.0454,-5.0472,-5.0451,-5.0454,-5.0367,-5.0348,-5.038,-5.0292,-5.0292,-5.0374,-5.0471,-5.0261,-5.0264,-5.0592,-5.0603,-5.0613,-5.0835,0,0,0,0,0,0,-5.0565,-5.057,-5.0627,-5.0558,-5.0554,-5.0652,-5.0478,-5.0455,-5.046,-5.0439,-5.0383,-5.0367,-5.0287,-5.037,-5.0378,-5.0472,-5.0267,-5.0583,-5.0597,-5.061,-5.0819,-5.0852,-5.0881,0,0,0,0,0,-5.0564,-5.0693,-5.0631,-5.0634,-5.0623,-5.0658,-5.0656,-5.0559,-5.0468,-5.0526,-5.0471,-5.0369,-5.0459,-5.038,-5.0387,-5.0484,-5.0577,-5.0593,-5.0609,-5.0805,-5.0846,-5.088,0,0,0,0,0,0,-5.0778,-5.0682,-5.0612,-5.0721,-5.0699,-5.0623,-5.0692,-5.0605,-5.0609,-5.059,-5.0471,-5.0461,-5.056,-5.0529,-5.0444,-5.0632,-5.0501,-5.0519,-5.0648,-5.0686,-5.0716,-5.0722,-5.027,0,0,0,0,0,-5.0838,-5.0872,-5.0787,-5.0893,-5.0885,-5.0792,-5.0803,-5.073,-5.0703,-5.0693,-5.0644,-5.0623,-5.0646,-5.0664,-5.0681,-5.0813,-5.0799,-5.0884,-5.0915,-5.094,-5.0958,-5.1028,-5.1065,-5.067,-5.067,-5.0669,0,0,-5.0962,-5.0913,-5.0943,-5.0934,-5.0908,-5.0949,-5.0785,-5.0834,-5.0864,-5.0701,-5.0775,-5.0739,-5.0708,-5.0817,-5.0862,-5.0794,-5.1064,-5.0961,-5.0982,-5.0986,-5.1048,-5.1086,-5.1119,-5.0681,-5.0679,-5.0677,0,0,-5.1208,-5.1175,-5.1259,-5.1237,-5.1199,-5.1136,-5.1157,-5.1094,-5.1063,-5.1135,-5.1014,-5.1049,-5.1091,-5.1074,-5.1072,-5.1314,-5.1222,-5.1323,-5.1485,-5.1555,-5.1586,-5.1613,-5.1701,-5.1734,-5.134,-5.1341,-5.1341,0,-5.1368,-5.1422,-5.1314,-5.1372,-5.1373,-5.1226,-5.1312,-5.1295,-5.1267,-5.1272,-5.1196,-5.1246,-5.1215,-5.1318,-5.1378,-5.138,-5.1401,-5.1329,-5.1589,-5.1616,-5.1639,-5.1722,-5.1755,-5.1354,-5.1352,-5.1351,-5.135,0,-5.1621,-5.1661,-5.1734,-5.1708,-5.1717,-5.1789,-5.1694,-5.1716,-5.1644,-5.159,-5.1666,-5.1624,-5.163,-5.1649,-5.1578,-5.1743,-5.1702,-5.161,-5.1477,-5.1691,-5.1767,-5.1798,-5.1372,-5.1367,-5.1363,-5.136,0,0,-5.2,-5.1914,-5.1943,-5.193,-5.1878,-5.1908,-5.1974,-5.1978,-5.2001,-5.1986,-5.204,-5.208,-5.1994,-5.1991,-5.1918,-5.1979,-5.2176,-5.1878,-5.1876,-5.1937,-5.2357,-5.2427,-5.2466,-5.2114,-5.2119,-5.2124,-5.236,0,-5.2234,-5.234,-5.2246,-5.2371,-5.2408,-5.2269,-5.2327,-5.2303,-5.2255,-5.2281,-5.2227,-5.2258,-5.2142,-5.2139,-5.2193,-5.214,-5.2259,-5.2122,-5.2165,-5.2168,-5.2178,-5.2505,-5.2579,-5.2804,-5.2388,-5.2393,-5.2397,0,-5.2521,-5.2519,-5.2648,-5.2589,-5.26,-5.2654,-5.2651,-5.2677,-5.2648,-5.2608,-5.2606,-5.2516,-5.2579,-5.2448,-5.2535,-5.2444,-5.2456,-5.2433,-5.2439,-5.2441,-5.2296,-5.2516,-5.2873,-5.2908,-5.2442,-5.2439,-5.2435,0,-5.2787,-5.2816,-5.2896,-5.2889,-5.2822,-5.2864,-5.2838,-5.2802,-5.2811,-5.2809,-5.2814,-5.2821,-5.2825,-5.2834,-5.2749,-5.2661,-5.2848,-5.2709,-5.2818,-5.2821,-5.2865,-5.2863,-5.323,-5.2871,-5.2871,-5.287,-5.287,0,-5.3059,-5.3144,-5.3015,-5.3065,-5.3156,-5.3048,-5.3142,-5.3102,-5.3072,-5.3113,-5.2994,-5.3036,-5.2921,-5.2952,-5.2886,-5.2969,-5.2972,-5.2943,-5.2925,-5.2955,-5.2959,-5.2962,-5.2944,-5.2879,-5.2877,-5.2875,-5.2874,0,-5.3371,-5.3288,-5.3367,-5.3297,-5.3281,-5.3352,-5.3293,-5.3338,-5.3281,-5.3336,-5.3342,-5.3255,-5.3285,-5.3201,-5.3219,-5.3175,-5.3295,-5.3251,-5.3305,-5.3292,-5.3407,-5.3398,-5.379,-5.3836,-5.3448,-5.3451,-5.3455,0,-5.355,-5.3612,-5.3548,-5.3567,-5.3547,-5.3579,-5.3587,-5.3483,-5.3498,-5.347,-5.3519,-5.3538,-5.3549,-5.3604,-5.3544,-5.3557,-5.3513,-5.365,-5.3515,-5.3543,-5.3517,-5.3515,-5.3522,-5.3678,-5.3683,-5.3687,-5.369,0,-5.3878,-5.3834,-5.3849,-5.3852,-5.3866,-5.3863,-5.3852,-5.3875,-5.3764,-5.3786,-5.3815,-5.3823,-5.384,-5.3863,-5.3863,-5.3838,-5.3748,-5.3733,-5.3759,-5.379,-5.382,-5.3807,-5.3383,-5.3724,-5.3721,-5.3718,-5.3717,-5.3715,-5.4129,-5.4178,-5.4142,-5.4164,-5.4145,-5.4138,-5.4176,-5.4125,-5.4146,-5.4151,-5.4089,-5.4132,-5.4103,-5.4093,-5.4079,-5.4112,-5.4049,-5.4087,-5.4097,-5.4108,-5.4128,-5.3814,-5.4111,-5.411,-5.4109,-5.4108,-5.4107,0,-5.4452,-5.4421,-5.4443,-5.4431,-5.445,-5.436,-5.4344,-5.4366,-5.4404,-5.4383,-5.4396,-5.443,-5.4452,-5.4393,-5.4406,-5.4444,-5.4403,-5.4452,-5.4448,-5.4445,-5.4182,-5.4159,-5.4485,-5.4485,-5.4485,-5.4485,-5.4485,-5.4485,-5.4622,-5.47,-5.4653,-5.4721,-5.469,-5.4729,-5.4728,-5.4722,-5.4705,-5.4748,-5.4765,-5.4726,-5.4691,-5.4701,-5.4718,-5.47,-5.4711,-5.4775,-5.4744,-5.45,-5.4463,-5.4428,-5.4405,-5.4778,-5.4778,-5.5003,-5.5005,-5.5007]},{"header":{"parameterUnit":"m.s-1","parameterCategory":1,"la1":30.2991,"la2":30.254,"lo1":-89.0895,"lo2":-89.0444,"dy":0.0017,"dx":0.0017,"nx":28,"ny":28,"refTime":"2024-05-30T21:00:00:Z","depth":0,"parameterNumber":3,"parameterNumberName":"V-component_of_WINDS"},"data":[0,0,0,0,0,0,0,0,0,0,0,0,0,0,0,0,0,0,0,0,0,0,0,0,0,0,0,0,0,0,0,0,0,0,0,0,0,0,0,0,0,0,0,0,0,0,0,0,0,0,0,0,0,0,0,0,0,0,2.8949,2.895,0,2.9043,2.9044,2.9045,2.9177,2.9179,2.9181,2.9184,2.9273,2.9273,2.9273,0,0,0,0,0,0,0,0,0,0,0,0,0,2.8879,2.888,2.8949,2.895,2.8951,2.9043,2.9044,2.9045,2.9176,2.9179,2.9182,2.9185,2.9272,2.9273,2.9273,0,0,0,0,0,0,0,0,0,0,0,0,0,2.8935,2.888,2.8949,2.9028,2.9036,2.9042,2.9044,2.9046,2.9176,2.9179,2.9183,2.9186,2.9272,2.9273,2.9273,2.9207,0,0,2.9274,2.9274,0,0,0,0,0,0,0,0,2.8931,2.8937,2.9015,2.9023,2.9032,2.9102,2.9052,2.9099,2.9175,2.9122,2.9184,2.9188,2.9212,2.9218,2.9228,2.9211,2.9215,2.9274,2.9274,2.9275,2.9275,0,0,0,0,0,0,0,2.8927,2.8934,2.8986,2.9016,2.9026,2.9058,2.9069,2.9062,2.9147,2.9127,2.9137,2.9147,2.9218,2.9227,2.9231,2.9216,2.9274,2.9275,2.9275,2.9275,2.9151,2.9147,0,0,0,0,0,0,2.8912,2.893,2.8983,2.8989,2.8989,2.9056,2.9069,2.9076,2.9148,2.9162,2.9144,2.9153,2.9225,2.923,2.9235,2.9161,2.9275,2.9275,2.9275,2.9154,2.915,2.9146,0,0,0,0,0,0,2.891,2.8916,2.8979,2.8962,2.8973,2.9054,2.906,2.9076,2.9086,2.916,2.9175,2.9138,2.9228,2.9234,2.9214,2.9166,2.9275,2.9276,2.9158,2.9153,2.9148,2.9013,0,0,0,0,0,0,2.8908,2.8914,2.8891,2.8961,2.8973,2.8957,2.9057,2.9075,2.9087,2.9099,2.9159,2.9172,2.9231,2.9212,2.9214,2.9168,2.9276,2.9163,2.9156,2.915,2.9022,2.9004,2.8988,0,0,0,0,0,2.8905,2.8848,2.8889,2.8895,2.8945,2.8954,2.8961,2.9032,2.9082,2.9058,2.9107,2.917,2.9172,2.9209,2.9212,2.9166,2.9166,2.9158,2.915,2.903,2.9008,2.8989,0,0,0,0,0,0,2.8767,2.8858,2.8905,2.8869,2.8903,2.8976,2.8948,2.9006,2.9025,2.9035,2.9122,2.9134,2.9102,2.9133,2.9172,2.9106,2.9179,2.9171,2.9086,2.9066,2.9049,2.904,2.9276,0,0,0,0,0,2.8733,2.8734,2.8814,2.8774,2.8789,2.8866,2.8872,2.8925,2.8962,2.8977,2.9024,2.9056,2.9065,2.9068,2.9079,2.9029,2.9043,2.8999,2.8982,2.8968,2.8959,2.8933,2.8914,2.912,2.912,2.912,0,0,2.8661,2.8711,2.8706,2.8747,2.878,2.8778,2.8877,2.887,2.8868,2.8975,2.8958,2.8994,2.9037,2.9001,2.8987,2.9025,2.8906,2.8958,2.8946,2.8945,2.8923,2.8904,2.8886,2.9115,2.9116,2.9116,0,0,2.8528,2.8568,2.8539,2.8571,2.862,2.8672,2.8665,2.8731,2.876,2.8746,2.8826,2.8825,2.8838,2.8864,2.8879,2.8761,2.8819,2.8763,2.8672,2.8647,2.863,2.8616,2.8571,2.8554,2.8754,2.8754,2.8754,0,2.8431,2.8433,2.8516,2.8505,2.852,2.8621,2.8591,2.8618,2.8667,2.8674,2.8718,2.8737,2.8772,2.8743,2.8715,2.8725,2.8718,2.8754,2.8627,2.8613,2.8601,2.8559,2.8542,2.8747,2.8748,2.8748,2.8749,0,2.8311,2.8311,2.8281,2.833,2.8342,2.8322,2.84,2.8403,2.8455,2.8502,2.8486,2.8534,2.8556,2.8555,2.8605,2.8533,2.8555,2.8611,2.8685,2.8573,2.8534,2.8519,2.8736,2.8739,2.8741,2.8743,0,0,2.8087,2.8186,2.8173,2.8196,2.8261,2.8261,2.8246,2.8271,2.8271,2.8303,2.829,2.8301,2.8354,2.8371,2.8426,2.8404,2.8304,2.8463,2.8466,2.8429,2.8225,2.8179,2.8159,2.8346,2.8343,2.8341,2.8221,0,2.7964,2.7944,2.802,2.7979,2.7979,2.8078,2.8064,2.8101,2.8146,2.8151,2.8201,2.8205,2.8277,2.8288,2.8271,2.832,2.8264,2.833,2.8331,2.833,2.8312,2.814,2.8091,2.7974,2.8206,2.8204,2.8202,0,2.7816,2.7843,2.7803,2.7871,2.7874,2.786,2.789,2.7896,2.794,2.7974,2.7995,2.806,2.8048,2.8122,2.8106,2.8149,2.8155,2.8179,2.8177,2.8175,2.8255,2.813,2.794,2.792,2.818,2.8182,2.8184,0,2.7653,2.768,2.766,2.7678,2.7757,2.7745,2.7777,2.7825,2.7836,2.7862,2.787,2.7893,2.7905,2.7921,2.799,2.8038,2.7964,2.8045,2.7989,2.7986,2.7964,2.7963,2.7767,2.7975,2.7975,2.7975,2.7976,0,2.7505,2.7475,2.7588,2.7574,2.7545,2.7633,2.7601,2.7643,2.7685,2.7681,2.7768,2.7761,2.7855,2.7859,2.7913,2.7889,2.7895,2.792,2.7933,2.7909,2.7905,2.791,2.7918,2.7971,2.7972,2.7973,2.7973,0,2.7315,2.739,2.7374,2.7453,2.7472,2.7446,2.7512,2.7502,2.7555,2.7548,2.7551,2.7632,2.7641,2.7713,2.7737,2.7774,2.7728,2.776,2.7713,2.7721,2.766,2.7663,2.7457,2.7433,2.7658,2.7656,2.7654,0,2.7213,2.7193,2.7271,2.7276,2.7304,2.7311,2.7323,2.741,2.7419,2.747,2.7453,2.747,2.7487,2.7497,2.7556,2.7575,2.7605,2.7532,2.7608,2.7584,2.7599,2.7598,2.7595,2.7513,2.751,2.7508,2.7506,0,2.7022,2.7062,2.7078,2.7107,2.712,2.7146,2.7178,2.7176,2.7272,2.7278,2.729,2.7304,2.733,2.7344,2.7375,2.7406,2.747,2.7483,2.747,2.7442,2.7415,2.7425,2.7664,2.7485,2.7488,2.7489,2.749,2.7491,2.6871,2.6858,2.6911,2.6926,2.6961,2.6989,2.6983,2.7037,2.7049,2.7079,2.713,2.7134,2.718,2.7227,2.7254,2.7257,2.7295,2.7277,2.7272,2.7265,2.7251,2.7419,2.7263,2.7264,2.7264,2.7265,2.7265,0,2.6683,2.6723,2.6736,2.6779,2.6791,2.6857,2.6896,2.69,2.6903,2.6942,2.6959,2.6972,2.6987,2.7049,2.7071,2.7061,2.7091,2.7063,2.7062,2.7068,2.7217,2.7224,2.7038,2.7038,2.7038,2.7038,2.7038,2.7038,2.6585,2.6567,2.6612,2.6611,2.6652,2.6658,2.6674,2.67,2.6732,2.6744,2.6758,2.68,2.6848,2.6874,2.689,2.6909,2.691,2.6872,2.6898,2.7036,2.7057,2.7078,2.7085,2.6872,2.6872,2.6748,2.6747,2.6746]}]]